Regional Weather Roundup
Issued by NWS

Home | Current Version | Previous Version | Graphics & Text | Print | Product List | Glossary On
Versions: 1 2 3 4 5 6 7 8 9 10 11 12 13 14 15 16 17 18 19 20 21 22 23 24 25 26 27 28 29 30 31 32 33 34 35 36 37 38 39 40 41 42 43 44 45 46 47 48 49 50
000
ASUS45 KBOU 300407
RWRCO

WEATHER ROUNDUP FOR COLORADO
NATIONAL WEATHER SERVICE DENVER/BOULDER CO
1000 PM MDT MON AUG 29 2016

NOTE: "FAIR" INDICATES FEW OR NO CLOUDS BELOW 12000 FEET WITH NO
SIGNIFICANT WEATHER AND/OR OBSTRUCTIONS TO VISIBILITY.

COZ001>005-013-030-031-300500-
...NORTHWEST COLORADO...

CITY           SKY/WX    TMP DP  RH WIND       PRES   REMARKS
CRAIG          FAIR      65  36  34 E9        30.34R
HAYDEN         FAIR      64  36  34 SE18      30.37S
MEEKER         FAIR      61  42  49 NE3       30.35R
MOUNT WERNER   NOT AVBL
STEAMBOAT SPGS FAIR      62  39  42 S8        30.40R
WALDEN         FAIR      54  34  47 CALM      30.52R
$$

COZ006>008-011-300500-
...WEST CENTRAL VALLEYS...

CITY           SKY/WX    TMP DP  RH WIND       PRES   REMARKS
GRAND JUNCTION FAIR      73  43  33 SE15      30.23R
MONTROSE       FAIR      65  44  46 S6        30.34S
EAGLE          FAIR      57  45  62 S3        30.42S
RIFLE          FAIR      65  46  50 SE6       30.31R
DELTA          MOCLDY    69  44  39 CALM      30.30S
NUCLA          FAIR     N/A N/A N/A SE6       30.35R
$$

COZ017>023-064>068-300500-
...SOUTHWEST COLORADO...

CITY           SKY/WX    TMP DP  RH WIND       PRES   REMARKS
DURANGO        FAIR      57  45  64 N5        30.35S
CORTEZ         FAIR      60  49  66 E5        30.28R
PAGOSA SPRINGS FAIR      53  44  71 CALM      30.44R
TELLURIDE      FAIR      52  41  66 SE3       30.52S
WOLF CREEK PAS MOCLDY    36  36 100 MISG      30.71S
$$

COZ009-010-012-014-032>034-037-058>063-300500-
...CENTRAL COLORADO...

CITY           SKY/WX    TMP DP  RH WIND       PRES   REMARKS
ASPEN          FAIR      49  44  83 SW7       30.46R
BUENA VISTA    FAIR      46  44  91 CALM      30.54F
COPPER MTN     FAIR      45  32  61 SE9       30.72F
BERTHOUD PASS  MOCLDY    34  23  64 E31G37    30.74S WCI  20
COTTONWOOD PAS FAIR      48  37  66 W3        30.63F
GUNNISON       MOCLDY    55  43  62 NE7       30.51S
KREMMLING      FAIR      50  37  62 CALM      30.48F
LEADVILLE      FAIR      38  36  92 E6        30.62R
MONARCH PASS   FOG       36  34  93 NE20      30.79F VSB<1/4
SALIDA         FAIR      52  49  91 W3        30.59F
SUNLIGHT       FAIR      46  37  71 W10G17    30.66R
WILKERSON PASS FAIR      37  36  93 NE8       30.71F
$$

COZ069>075-300500-
...SAN LUIS VALLEY/SANGRE DE CRISTO MOUNTAINS...

CITY           SKY/WX    TMP DP  RH WIND       PRES   REMARKS
ALAMOSA        FAIR      54  45  71 W6        30.46R
LA VETA PASS   CLOUDY    43  39  87 NE3       30.61F
SAGUACHE       MOCLDY    52  45  76 NW15      30.48F
$$

COZ035-036-038>040-300500-
...NORTHERN COLORADO FRONT RANGE...

CITY           SKY/WX    TMP DP  RH WIND       PRES   REMARKS
DENVER INTL AP MOCLDY    63  48  58 NE7       30.37F
DMNS CITY PARK   N/A     62  49  60 E3G9      30.38F
AURORA         MOCLDY    60  50  69 SW1       30.40R
FRONT RANGE AP NOT AVBL
ERIE MUNI ARPT MOCLDY    62  52  71 SE6       30.36R
BOULDER MUN AP FAIR      61  52  72 SE5       30.38R
CENTENNIAL     CLOUDY    59  49  69 NE9       30.42R
BROOMFIELD     MOCLDY    63  48  59 E9        30.41R
FORT COLLINS   FAIR      63  52  67 SE13      30.35S
LONGMONT       FAIR      63  53  72 CALM      30.38R
$$

COZ041-046-047-076>085-087-088-300500-
...PIKES PEAK/PALMER DIVIDE AND SOUTHERN FOOTHILLS...

CITY           SKY/WX    TMP DP  RH WIND       PRES   REMARKS
COLO. SPRINGS  MOCLDY    59  48  67 NW9       30.41F
A. F. ACADEMY  MOCLDY    51  50  95 N9        30.42F
SCHRIEVER AFB  NOT AVBL
ELLICOTT       NOT AVBL
FALCON         CLOUDY    55  46  71 NW9       30.44S
FORT CARSON    FAIR      59  49  67 NW8       30.37F
LIMON          MOCLDY    58  50  75 NW5       30.36S
MONUMENT HILL  FAIR      50  45  81 W8        30.48S
TRINIDAD       CLOUDY    58  52  80 W8        30.40S
$$

COZ042>045-048>051-090-091-300500-
...NORTHEAST COLORADO...

CITY           SKY/WX    TMP DP  RH WIND       PRES   REMARKS
GREELEY ARPT   FAIR      63  55  77 SW6       30.33F
AKRON          FAIR      65  51  60 SW7       30.30S
BURLINGTON     FAIR      63  58  83 SE8       30.30R
WRAY           NOT AVBL
STERLING       FAIR      68  57  68 CALM      30.25F
HOLYOKE        FAIR      63  59  88 S6        30.27S
FORT MORGAN    FAIR      63  53  70 NW9       30.30S
$$

COZ086-089-092>099-300500-
...SOUTHEAST COLORADO...

CITY           SKY/WX    TMP DP  RH WIND       PRES   REMARKS
PUEBLO         CLOUDY    66  51  58 NW6       30.32S
LA JUNTA       CLOUDY    67  52  58 N7        30.28S
LAMAR          FAIR      66  59  78 SE8       30.25R
SPRINGFIELD      N/A     62  60  93 SE7       30.30R
$$



USA.gov is the U.S. government's official web portal to all federal, state and local government web resources and services.